FENGYUN 1C DEB, 40691

Orbit data source: Space-Track

FENGYUN 1C DEB, 40691 is space debris in SSO originally from a launch on Mon, 10 May 1999 UTC launched from the Taiyaun Space Center, China (TSC). Fengyun 1C debris stems from the Chinese weather satellite Fengyun-1C, which was intentionally destroyed by a Chinese anti-satellite missile in 2007. This event dramatically increased the amount of space debris, with thousands of trackable fragments posing hazards to satellites and human spaceflight. The Fengyun 1C debris cloud has become a focal point in discussions about space sustainability and the need for international regulations to prevent the creation of new debris.

Loading next visibility...
Identifier
40691, 1999-025EWX
Orbit
SSO
Country
Flag of CNCN / PRC
Related business
Manufacturer
Unknown
Mission
Spacecraft
Bus & Motor
Unknown
Mass
Unknown
Launch date (UTC)
1999-05-10 (27 years ago)
Launch vehicle
Unknown
Launch site
Taiyaun Space Center, China (TSC)
Object type
Payload
Rocket body
Debris
Shape & HBR
Unknown shape, 0.1 m
Radar Cross Section
Small (<0.1 m²)

Expand to show TLE details & history
Last TLE update: 1 week ago

TLE from 1 week ago
0 FENGYUN 1C DEB
1 40691U 99025EWX 26256.30782875  .00000104  00000-0  11217-3 0  9996
2 40691  99.0284 285.9282 0127678 285.5437  73.1657 13.90063343592507
Epoch: 2026-09-13T07:23Z
TLE epoch observation values (Epoch: 2026-09-13T07:23:16.403Z)
Latitude
-0.00007°
Longitude
-177.19448°
Altitude
905.348 km
Speed
7.412 km/s
True Right ascension
19h 03m 42s
True Declination
0° 00' 00"
Sunlit
Object was in daylight at epoch
Visualization orbit readout
Latitude
Unknown
Longitude
Unknown
Altitude
Unknown
Speed
Unknown
Apparent Right ascension
Unknown
Apparent Declination
Unknown
Sunlit
N/A
Visualization observer readout
Local Sidereal Time
14:52:57
Azimuth
Unknown
Elevation
Unknown
Doppler factor
Unknown
Orbital elements
Apogee altitude
1,018.875 km
Perigee altitude
832.369 km
Semi-major axis
7,303.759 km
Eccentricity
0.01277
Inclination
99.0284°
RAAN
285.9282°
Arg. of periapsis
285.5437°
True anomaly
74.57244°
Mean anomaly
73.1657°
Eccentric anomaly
73.86844°
Mean motion
3.47715 °/min
Orbital period
103.53 mins
BSTAR
0.00011217
Loading maneuver chart data...
Computing Atmospheric mass density...

Documentation

Showing up to 5 results
|